Weather History for Melbourne, FL

Change the Weather History Date:

Thursday, August 29, 2013

  Actual Average Record
Temperature  
Mean Temperature 81 °F 82 °F  
Max Temperature 88 °F 90 °F 97 °F (1938)
Min Temperature 73 °F 73 °F 67 °F (1965)
Degree Days  
Heating Degree Days 0 0  
Month to date heating degree days 0 0  
Since 1 June heating degree days 0 0  
Since 1 July heating degree days 0 0  
Cooling Degree Days 16 16  
Month to date cooling degree days 524 492  
Year to date cooling degree days 2413 2196  
Since 1 June cooling degree days 1552 1470  
Growing Degree Days 30 (Base 50)    
Moisture  
Dew Point 72 °F    
Average Humidity 76    
Maximum Humidity 94    
Minimum Humidity 57    
Precipitation  
Precipitation T in 0.25 in 1.30 in (1961)
Month to date precipitation 1.77 7.19  
Year to date precipitation 30.75 33.36  
Sea Level Pressure  
Sea Level Pressure 30.00 in    
Wind  
Wind Speed 5 mph (SE)    
Max Wind Speed 12 mph    
Max Gust Speed 15 mph    
Visibility 10 miles    
Events Rain    
T = Trace of Precipitation, MM = Missing Value Source: NWS Daily Summary

Daily Weather History Graph

Daily Weather History Graph

Search for Another Location

Airport:

Trip Planner

Search our weather history database for the weather conditions in past years. The results will help you decide how hot, cold, wet, or windy it might be!

Date:

Astronomy

Aug. 29, 2013 Rise Set
Actual Time 6:59 AM EDT 7:46 PM EDT
Civil Twilight 6:35 AM EDT 8:10 PM EDT
Nautical Twilight 6:07 AM EDT 8:38 PM EDT
Astronomical Twilight 5:38 AM EDT 9:07 PM EDT
Moon 1:04 AM EDT 2:59 PM EDT
Length of Visible Light 13h 34m
Length of Day
12h 46m
Last Quarter, 38% of the Moon is Illuminated
Aug 29
Last Quarter
Sep 5
New
Sep 12
First Quarter
Sep 19
Full
Sep 26
Last Quarter

Hourly Weather History & Observations

Time (EDT) Temp. Heat Index Dew Point Humidity Pressure Visibility Wind Dir Wind Speed Gust Speed Precip Events Conditions
12:53 AM 82.0 °F 86.7 °F 72.0 °F 71% 30.04 in 10.0 mi East 4.6 mph - N/A   Overcast
1:53 AM 81.0 °F 85.2 °F 72.0 °F 74% 30.03 in 10.0 mi South 3.5 mph - N/A   Overcast
2:53 AM 78.1 °F - 72.0 °F 81% 30.02 in 10.0 mi South 5.8 mph - N/A   Mostly Cloudy
3:53 AM 77.0 °F - 72.0 °F 84% 30.01 in 10.0 mi South 3.5 mph - N/A   Overcast
4:53 AM 75.9 °F - 71.1 °F 85% 30.00 in 10.0 mi WNW 3.5 mph - N/A   Mostly Cloudy
5:53 AM 73.9 °F - 72.0 °F 93% 30.01 in 10.0 mi West 3.5 mph - N/A   Clear
6:53 AM 73.9 °F - 72.0 °F 93% 30.01 in 10.0 mi WNW 4.6 mph - N/A   Clear
7:53 AM 75.9 °F - 73.9 °F 94% 30.02 in 10.0 mi Calm Calm - N/A   Clear
8:53 AM 80.1 °F 83.8 °F 72.0 °F 76% 30.02 in 10.0 mi WNW 3.5 mph - N/A   Clear
9:53 AM 84.0 °F 89.6 °F 72.0 °F 67% 30.02 in 10.0 mi Variable 3.5 mph - N/A   Clear
10:53 AM 87.1 °F 92.8 °F 71.1 °F 59% 30.03 in 10.0 mi Calm Calm - N/A   Scattered Clouds
11:53 AM 87.1 °F 94.5 °F 73.0 °F 63% 30.03 in 10.0 mi ENE 10.4 mph - N/A   Mostly Cloudy
12:53 PM 84.9 °F 90.7 °F 72.0 °F 65% 30.03 in 10.0 mi East 9.2 mph - 0.00 in Rain Light Rain
1:53 PM 86.0 °F 91.5 °F 71.1 °F 61% 30.02 in 10.0 mi ESE 8.1 mph - 0.00 in Rain Light Rain
2:53 PM 86.0 °F 91.5 °F 71.1 °F 61% 29.99 in 10.0 mi East 8.1 mph - 0.00 in   Overcast
3:53 PM 84.9 °F 89.4 °F 70.0 °F 61% 29.98 in 10.0 mi East 6.9 mph - N/A   Mostly Cloudy
4:53 PM 86.0 °F 90.7 °F 70.0 °F 59% 29.96 in 10.0 mi ESE 6.9 mph - N/A   Overcast
5:53 PM 84.0 °F 88.4 °F 70.0 °F 63% 29.96 in 10.0 mi ESE 10.4 mph - N/A   Overcast
6:53 PM 82.9 °F 88.0 °F 72.0 °F 69% 29.96 in 10.0 mi ESE 8.1 mph - N/A   Mostly Cloudy
7:53 PM 82.9 °F 87.5 °F 71.1 °F 67% 29.96 in 10.0 mi SE 8.1 mph - N/A   Mostly Cloudy
8:53 PM 82.0 °F 87.4 °F 73.0 °F 74% 29.96 in 10.0 mi SSE 5.8 mph - N/A   Overcast
9:53 PM 80.1 °F 84.2 °F 73.0 °F 79% 29.98 in 10.0 mi SSE 3.5 mph - N/A   Scattered Clouds
10:53 PM 80.1 °F 84.5 °F 73.9 °F 81% 29.99 in 10.0 mi South 3.5 mph - N/A   Clear
11:53 PM 79.0 °F - 73.0 °F 82% 29.99 in 10.0 mi South 5.8 mph - N/A   Clear